Wind_Speed
58 59 61 59 59 61 60 59 58 55 50 47 47 48 47 45 45 45 45 41 30 23 22 21 20 19 18 19 18 19 20 18 17 19 18 14 11 11 12 12 13 15 16 18 18 17 16 16 17 18 19 19 18 18 17 17 17 16 14 14 15 15 14
59 59 60 61 61 62 62 62 58 54 53 52 50 51 51 49 50 50 48 43 37 32 28 24 22 21 19 18 18 18 18 17 16 16 15 11 11 13 14 13 14 16 16 18 18 17 17 17 17 18 20 21 20 19 18 17 16 15 14 14 14 14 14
58 59 60 63 63 64 65 63 57 56 58 57 54 55 55 53 53 53 50 46 42 37 32 27 24 23 21 19 18 17 17 16 13 14 14 13 14 14 14 14 14 15 16 17 16 16 16 16 16 17 19 19 19 18 17 16 16 15 14 13 13 14 14
56 59 62 64 65 66 66 65 62 61 61 59 56 56 56 55 55 54 53 50 44 37 32 28 25 23 21 20 16 15 16 15 12 12 13 13 14 15 14 14 15 16 17 16 15 15 15 15 15 16 16 15 14 15 15 15 15 14 12 12 13 14 14
57 60 63 63 64 66 67 67 68 66 64 62 59 57 57 57 56 56 55 53 45 34 30 28 26 24 21 17 14 14 16 15 13 14 13 13 14 15 15 16 17 17 17 16 15 14 14 13 13 13 12 11 11 11 12 13 14 13 12 13 13 14 15
58 60 61 60 61 64 66 67 68 67 65 63 61 60 60 58 58 58 57 56 48 36 29 28 26 26 23 17 14 15 15 16 16 15 15 15 15 17 18 19 19 18 17 17 16 14 13 12 10 9 9 9 10 11 12 13 13 12 12 12 13 14 16
57 58 58 58 60 62 64 66 67 65 64 63 62 62 60 58 59 59 58 58 51 40 32 29 27 28 27 21 18 17 15 15 15 15 16 17 17 19 23 23 20 18 18 18 17 15 14 12 10 9 9 9 10 10 11 11 11 11 12 12 14 15 17
55 55 55 56 57 59 63 66 66 66 65 64 63 62 59 59 60 59 59 60 55 45 36 29 27 28 27 23 22 20 16 15 16 17 18 19 19 22 25 24 21 19 19 19 18 17 15 14 13 11 10 9 9 9 10 10 10 12 12 12 14 15 17
53 54 55 56 58 58 61 64 64 64 64 63 63 63 62 63 64 60 59 60 57 49 39 32 31 29 25 24 24 22 19 17 18 19 21 22 23 23 24 24 22 20 20 20 19 18 17 16 15 15 13 11 11 10 10 10 11 12 12 12 14 16 19
56 58 60 61 60 60 60 61 62 63 63 63 63 64 66 68 67 63 62 61 57 49 41 35 35 33 28 25 23 20 18 17 19 21 23 24 24 23 23 23 22 22 22 21 20 19 17 16 15 15 14 14 13 12 11 10 11 11 12 15 17 18 21
56 59 60 59 57 58 59 58 58 60 62 63 63 64 66 67 66 65 63 60 55 48 41 36 35 35 32 28 23 19 17 18 20 23 24 24 23 23 23 23 23 24 23 21 21 20 18 16 14 13 13 13 13 12 11 11 11 13 15 17 19 20 22
53 53 54 53 50 51 55 55 53 54 58 60 62 64 64 63 63 63 58 55 53 47 40 36 35 36 34 32 29 24 21 22 22 21 23 25 25 24 24 24 25 25 23 22 21 20 20 17 14 12 12 12 12 12 11 12 12 14 16 18 20 21 22
49 48 48 48 46 45 47 50 50 49 51 56 60 62 62 60 61 59 52 51 51 46 39 37 36 36 34 31 30 26 24 25 23 19 20 23 25 25 25 25 25 24 23 23 21 20 20 18 15 13 12 12 13 13 13 13 14 16 17 18 20 21 23
45 43 41 44 44 41 41 45 48 47 48 51 55 58 60 60 59 56 51 50 49 45 41 39 38 37 35 32 31 29 27 25 23 19 18 21 23 24 24 24 24 23 22 22 22 20 19 18 17 15 13 13 14 15 16 16 17 17 18 19 20 21 24
43 39 37 40 41 40 40 43 45 46 46 48 50 53 55 59 59 55 53 52 50 45 42 41 39 38 36 33 32 31 29 26 23 19 18 19 21 22 23 23 23 22 21 22 23 21 18 19 19 18 17 16 16 16 17 18 18 18 19 19 21 23 26
41 37 35 38 38 37 40 43 44 45 46 47 49 50 52 55 57 56 55 54 50 45 43 42 40 37 35 33 31 30 28 26 23 19 18 20 21 23 24 23 22 21 21 22 23 23 22 22 21 21 20 20 20 20 20 19 19 19 20 22 24 26 29
41 37 35 36 35 36 42 47 47 45 46 46 47 48 51 52 54 55 56 53 49 46 44 43 41 37 35 33 30 27 26 25 23 20 20 22 24 25 24 21 20 20 21 22 24 25 25 26 25 24 23 23 24 24 24 23 22 22 23 25 27 29 31
41 39 37 37 39 41 45 48 48 46 46 46 47 47 48 50 52 54 55 52 49 46 43 42 41 39 37 34 31 28 25 25 25 23 23 25 27 27 24 20 20 22 23 24 27 28 28 30 29 27 25 25 26 26 27 27 27 27 27 28 30 31 32
43 41 40 40 42 44 45 47 48 48 46 47 48 47 47 48 51 54 53 52 50 46 41 39 39 40 39 36 32 29 26 24 24 24 25 26 28 29 27 23 23 25 25 26 29 31 32 33 32 29 27 27 27 28 29 31 32 32 32 32 32 34 35
46 44 42 43 43 42 43 45 47 48 48 49 50 51 51 50 52 53 52 50 48 45 41 39 39 39 39 37 35 32 29 26 25 26 27 28 31 32 30 27 26 27 27 28 32 34 36 36 34 31 30 30 29 30 31 33 34 35 35 36 36 37 38
47 46 45 45 43 42 43 45 45 46 49 52 52 53 54 53 52 53 52 49 47 44 40 39 39 38 37 38 38 35 31 28 28 29 30 32 34 34 32 30 30 31 32 34 36 38 38 38 36 34 34 33 32 33 34 34 36 37 38 39 39 40 41
47 48 46 45 45 45 44 44 44 45 48 51 53 54 55 55 53 52 51 48 45 41 39 39 39 37 37 39 38 35 33 31 31 32 33 35 36 36 35 35 36 37 37 38 39 39 39 39 38 37 37 36 35 35 36 35 36 38 39 40 42 42 44
46 47 46 44 44 45 43 41 40 41 43 46 50 54 56 55 52 50 49 47 43 40 39 39 38 37 38 39 37 35 33 33 34 35 36 37 38 38 38 39 40 40 41 41 42 42 42 41 40 40 40 39 38 38 38 37 38 38 39 41 43 44 45
46 46 45 43 43 43 41 39 37 36 37 40 46 53 56 54 50 48 46 44 43 41 39 38 37 38 38 38 36 35 34 34 36 37 37 38 39 40 41 41 41 42 43 43 44 45 44 43 42 42 43 42 41 40 40 41 40 39 39 42 44 46 46
46 46 44 41 43 43 41 38 35 31 32 38 46 53 55 51 47 45 43 42 43 42 39 38 39 39 38 36 35 34 35 36 37 38 39 40 40 41 42 42 42 42 43 44 45 45 45 44 43 43 44 43 42 42 43 44 44 41 41 44 45 46 47
47 45 43 40 40 42 40 37 34 31 31 37 45 51 52 49 47 45 42 40 40 41 40 40 41 41 39 37 35 35 37 39 40 40 40 40 40 41 42 42 42 42 43 44 44 43 43 42 42 43 44 44 44 45 46 47 47 44 44 46 48 47 48
46 45 43 41 39 39 40 38 34 33 32 33 40 47 49 48 47 46 44 42 40 40 40 40 41 41 40 39 38 38 40 41 41 41 41 41 41 41 42 43 42 43 44 44 44 43 42 42 42 44 45 46 46 48 50 50 48 46 47 49 49 48 49
44 45 44 44 41 38 40 39 36 34 32 30 33 42 47 47 47 47 45 42 40 38 38 39 41 41 40 39 39 40 41 42 43 43 42 42 42 43 44 45 45 46 46 46 46 45 44 43 45 46 48 49 48 48 49 48 48 47 49 50 50 50 49
43 44 41 43 44 42 41 40 37 34 32 30 31 37 42 43 44 45 43 41 39 37 37 39 41 41 41 40 40 40 41 42 44 45 45 44 44 44 44 44 44 46 48 50 50 49 46 45 46 48 49 50 49 48 47 46 47 48 49 50 51 51 50
40 40 36 35 40 43 42 40 39 36 33 32 32 35 39 40 41 42 42 41 38 36 37 38 40 42 43 42 42 42 43 44 45 46 46 44 43 42 41 40 40 41 43 45 47 47 46 46 48 48 48 47 48 49 49 48 48 47 47 48 50 50 49
38 37 34 31 34 39 41 40 39 38 37 37 36 35 36 38 39 40 43 44 42 39 38 39 41 44 45 45 44 46 47 46 44 44 44 42 41 40 38 38 37 37 37 38 40 42 45 46 47 48 47 47 48 49 49 48 46 45 45 45 45 45 45
39 36 35 34 34 38 42 42 41 40 42 43 43 40 38 38 39 40 42 44 44 43 41 42 43 43 45 46 46 46 45 43 41 40 40 39 38 37 35 35 35 36 37 40 42 45 47 48 48 47 47 48 48 48 48 47 46 44 41 39 40 39 38
41 41 38 36 34 37 42 45 45 43 44 45 46 44 42 41 41 42 44 45 45 43 42 42 42 42 43 44 44 43 41 40 39 38 37 36 35 34 34 36 38 40 42 44 45 46 46 46 46 46 46 48 48 48 48 47 43 38 35 34 34 33 32
37 41 39 36 35 36 40 45 46 45 46 47 47 45 44 43 43 44 46 48 47 45 42 40 40 41 42 41 40 39 38 37 37 36 36 35 34 35 36 38 41 43 44 43 43 44 44 44 45 47 48 48 47 46 44 41 36 33 32 32 32 32 34
27 36 40 38 36 34 35 39 42 44 47 49 48 47 46 46 46 46 46 48 49 50 47 43 40 40 40 40 38 37 36 36 36 36 36 35 34 35 36 38 41 43 44 44 45 46 47 47 48 49 47 45 43 42 40 38 35 35 35 34 34 36 37
22 31 39 41 39 36 32 31 33 37 41 45 47 47 48 48 48 48 49 49 48 48 47 45 41 39 39 40 40 39 38 37 36 36 35 34 35 35 36 38 41 43 44 46 47 48 48 48 48 47 44 42 40 40 39 37 36 36 36 36 37 38 38
22 24 28 32 37 38 36 32 29 29 32 37 40 43 45 46 47 48 50 49 48 45 42 40 38 37 38 39 41 41 39 36 34 33 33 35 36 37 38 40 43 45 47 49 48 47 46 45 44 42 40 39 38 38 37 36 36 37 38 38 39 39 39
Wind_Direction
224 223 221 217 215 216 217 220 223 224 226 225 227 231 233 235 237 238 239 238 232 214 198 192 194 198 203 212 222 229 236 252 252 235 235 244 240 237 245 256 267 274 281 290 297 297 289 278 267 261 258 256 254 253 258 267 271 272 270 271 275 279 285
223 224 223 219 217 217 218 220 223 224 225 225 225 229 232 234 236 239 240 238 236 233 220 204 204 210 212 218 227 231 239 252 251 240 243 253 252 247 243 247 261 270 280 291 300 301 294 280 267 261 259 257 257 259 263 267 269 269 267 270 275 279 284
223 224 224 222 219 218 219 221 224 223 223 224 223 225 229 232 235 239 241 240 237 236 231 220 217 222 222 223 229 235 240 249 252 244 245 255 260 254 247 251 265 272 280 292 299 300 296 283 266 258 257 258 259 260 259 259 261 263 265 269 275 279 283
222 223 224 223 221 219 219 220 222 223 223 226 227 227 229 232 235 239 242 243 239 234 233 232 229 231 231 225 227 236 238 241 247 249 251 253 252 253 254 257 264 271 280 292 296 294 294 284 267 255 253 254 256 256 251 250 253 257 262 269 274 278 283
220 222 223 223 223 222 221 220 222 222 222 225 227 229 230 232 236 239 242 245 244 237 234 235 234 238 240 233 237 244 237 234 240 249 258 256 248 252 256 257 263 272 283 291 290 286 287 283 269 254 246 241 243 247 243 243 248 253 259 265 270 278 285
221 221 222 224 225 226 225 224 224 224 225 225 227 229 230 231 234 238 241 245 246 242 236 234 237 244 247 246 254 255 242 238 242 246 254 258 254 253 253 257 265 273 284 290 286 281 280 276 265 249 235 228 230 236 240 244 249 253 258 264 273 282 287
222 222 223 225 226 227 228 228 228 227 227 228 228 230 232 232 234 236 239 244 246 244 237 232 234 242 248 251 255 257 252 251 253 254 258 261 257 251 252 258 264 272 283 287 283 279 275 266 255 246 236 230 229 232 240 246 250 255 261 267 276 282 286
222 222 224 225 226 227 227 228 228 227 227 228 230 232 235 236 236 237 239 242 245 245 242 238 236 238 242 247 253 254 254 257 259 260 263 264 259 254 255 258 261 269 278 281 279 277 272 261 250 244 237 232 230 232 237 241 246 255 262 269 277 282 287
221 220 223 224 224 225 226 226 226 226 226 227 228 231 234 236 238 239 240 243 245 246 246 245 245 245 243 247 253 253 252 257 260 258 258 259 257 257 258 257 258 266 274 277 275 271 268 261 250 243 239 238 241 242 241 243 247 257 268 277 283 287 291
223 221 222 224 224 225 226 226 225 226 226 225 226 228 230 233 237 238 239 242 243 245 246 244 246 251 254 256 259 260 257 255 254 254 254 256 257 258 258 257 257 263 269 272 269 265 264 259 250 246 245 249 254 254 251 249 253 265 281 289 292 295 298
230 227 224 225 227 228 228 228 226 226 226 225 224 226 228 231 235 237 238 240 242 243 244 243 244 248 252 253 256 260 258 251 250 253 252 250 250 251 252 253 257 262 265 265 262 259 257 255 253 253 254 257 258 254 251 253 263 279 290 296 300 302 304
233 231 226 224 226 230 230 230 229 229 229 227 225 225 228 230 233 236 237 239 241 241 241 242 244 247 248 248 251 255 256 252 252 253 248 243 242 243 245 250 257 262 263 261 257 252 250 250 251 255 258 259 256 252 256 264 277 287 293 300 303 303 305
235 232 227 223 223 226 229 229 229 229 230 230 228 227 229 231 233 236 237 239 240 241 241 241 243 245 245 247 250 252 253 250 246 244 240 237 237 239 243 248 254 257 257 257 255 249 245 243 242 246 251 256 258 261 268 276 284 288 293 299 300 300 304
236 232 226 221 220 220 223 225 226 226 227 229 230 229 229 232 234 236 238 240 241 241 240 241 242 243 244 246 248 250 251 245 239 236 233 230 233 237 239 242 245 248 250 253 255 254 250 246 245 245 246 254 263 269 273 278 282 286 292 296 297 300 305
234 228 219 216 216 215 217 221 223 224 225 226 228 229 228 230 233 235 237 239 240 238 238 239 240 242 244 246 247 248 247 239 235 236 234 231 233 234 233 234 239 243 246 252 257 261 262 259 256 254 255 262 273 280 280 279 281 288 296 301 302 304 308
230 221 212 210 212 212 213 215 218 221 223 223 225 226 225 226 230 233 235 237 237 236 236 237 239 240 242 244 243 240 238 233 230 231 231 231 230 230 232 236 240 244 248 254 261 265 266 265 265 265 266 272 281 288 290 290 293 300 305 306 307 308 309
226 216 208 209 214 215 214 212 212 217 221 223 224 224 224 224 226 229 232 235 236 234 233 235 237 239 241 240 233 228 228 229 227 225 226 229 231 234 239 242 242 244 248 254 260 262 264 267 269 268 270 274 282 289 295 297 301 307 310 310 309 309 308
224 215 209 213 221 221 217 213 212 214 218 221 223 224 224 224 225 227 229 232 234 233 231 233 236 237 237 231 223 221 225 229 229 226 224 228 233 237 240 241 242 243 246 252 256 260 264 268 269 270 272 276 283 292 298 300 301 304 307 309 309 308 307
224 216 212 218 223 220 216 214 212 212 215 219 221 223 223 224 225 226 228 230 232 232 231 233 234 232 230 224 219 221 225 227 227 227 228 231 234 236 239 241 244 247 250 254 257 258 261 264 267 272 276 278 284 292 298 301 301 301 303 305 306 306 305
224 219 217 222 224 218 214 213 210 210 213 217 220 221 222 222 223 225 226 228 231 231 230 230 230 228 226 222 219 221 224 226 227 227 227 231 233 234 237 239 244 249 252 251 251 253 258 264 269 275 278 280 284 289 294 299 300 300 299 300 303 304 304
223 221 220 223 224 219 215 213 210 210 212 215 218 221 222 222 221 222 225 227 230 231 229 227 226 225 224 221 220 222 224 228 231 229 226 228 232 233 234 236 240 243 243 244 248 254 260 267 271 274 277 280 283 286 290 295 297 297 297 297 299 300 302
223 223 223 224 225 222 219 217 214 213 214 215 218 221 223 222 220 220 222 224 227 229 227 225 224 223 222 221 222 225 229 232 233 231 227 228 231 232 234 237 240 242 243 247 252 256 260 265 269 272 275 279 282 285 288 290 292 295 296 295 297 298 299
221 223 223 224 226 225 222 221 219 218 218 218 219 222 223 221 219 218 219 222 224 226 225 225 224 223 223 224 225 228 231 233 232 229 228 230 232 232 234 239 243 245 248 250 253 256 260 264 268 271 274 277 281 283 285 285 287 292 295 295 296 298 298
222 223 223 223 225 225 223 223 223 222 222 222 222 223 223 219 216 216 219 222 225 225 225 225 224 223 224 226 228 229 230 232 232 230 231 233 234 234 236 241 245 248 252 254 256 259 262 264 266 269 273 277 279 281 282 282 283 287 293 296 296 297 297
223 222 222 221 222 223 222 222 224 224 225 225 224 223 221 218 214 215 219 224 226 225 225 225 223 224 226 227 230 232 232 233 236 237 238 240 239 239 240 244 247 251 255 257 258 260 262 264 267 271 274 276 277 279 281 280 280 284 292 297 298 297 298
222 220 220 220 219 220 220 220 222 224 226 228 227 224 221 217 214 215 218 222 226 227 227 226 225 225 228 229 231 233 234 236 239 243 245 247 246 244 244 246 249 253 256 258 260 262 264 266 269 272 273 274 276 278 279 279 281 285 291 296 299 299 299
219 219 219 220 218 218 218 218 220 223 226 229 227 223 219 216 215 217 219 223 227 228 227 226 225 226 229 231 233 235 237 239 241 244 248 251 252 251 250 250 252 255 255 256 258 259 260 264 268 269 270 271 274 276 277 280 284 286 289 294 297 299 300
215 219 222 223 221 217 216 216 218 221 224 225 224 221 218 217 218 220 222 224 226 228 227 226 226 228 233 236 238 240 243 245 246 246 246 248 250 252 252 252 254 256 256 255 256 256 259 264 267 267 266 267 271 275 278 281 284 287 291 295 297 298 299
217 221 224 225 222 218 215 215 214 218 221 220 217 216 217 218 219 221 223 223 223 224 225 226 228 232 237 239 239 239 240 243 245 246 246 246 247 250 252 254 257 260 261 260 261 260 260 262 265 265 265 267 271 276 280 282 286 289 294 296 297 297 297
218 220 221 219 215 214 215 215 214 215 217 217 215 214 215 218 220 220 220 222 221 222 225 228 230 234 238 239 240 241 242 243 245 248 251 251 252 254 255 256 258 261 263 264 266 266 265 266 267 268 268 270 272 276 280 284 288 292 296 298 298 296 294
218 219 222 220 213 211 213 214 214 215 214 213 214 216 216 218 221 222 222 222 223 226 230 232 234 237 239 242 245 246 248 249 249 250 251 252 252 254 256 257 260 263 265 266 268 269 269 269 271 272 272 274 275 277 281 284 287 291 296 299 298 296 292
220 217 218 218 215 211 209 210 212 214 214 210 209 213 216 218 220 223 224 225 226 229 233 235 237 239 241 242 245 246 247 247 247 247 246 248 250 252 254 257 260 262 264 267 269 270 270 271 273 274 275 275 276 278 280 283 286 290 294 295 296 296 293
220 216 214 213 211 208 206 206 208 212 216 215 211 209 211 215 220 224 225 227 228 230 232 234 236 238 240 242 244 246 245 244 244 244 245 248 252 254 256 259 263 266 269 272 272 272 272 273 274 275 275 275 277 278 280 284 288 290 289 288 290 290 288
220 219 218 214 211 208 205 205 206 210 215 218 216 211 210 213 218 224 227 229 231 231 231 230 231 234 237 240 241 243 244 244 246 248 251 255 258 261 264 268 271 272 274 274 273 272 272 274 275 277 277 277 278 280 282 286 288 285 282 281 282 282 281
221 220 221 218 213 209 205 204 206 209 213 216 215 213 213 214 218 223 227 230 232 232 229 226 224 228 233 237 239 240 243 247 251 253 255 256 260 266 270 273 274 274 274 274 273 274 276 278 279 279 278 278 278 279 282 284 282 280 278 278 278 279 281
220 222 224 224 221 217 212 208 206 208 212 214 214 215 216 218 221 224 226 229 230 228 223 219 217 220 228 237 242 243 245 249 253 254 255 259 264 269 272 273 274 274 273 272 272 274 276 278 278 276 275 275 275 276 278 279 279 278 278 278 278 280 281
218 222 225 227 229 229 229 225 220 218 218 218 218 219 221 221 220 222 223 223 222 220 219 219 219 222 230 239 243 244 246 252 258 261 263 266 268 269 270 271 273 273 272 272 272 273 274 274 272 271 271 271 273 275 277 278 279 279 279 279 280 281 282
Height
5828 5833 5836 5841 5843 5845 5848 5850 5850 5853 5858 5862 5864 5864 5866 5868 5868 5867 5867 5870 5873 5877 5880 5883 5885 5887 5889 5891 5892 5893 5894 5894 5894 5894 5894 5895 5895 5895 5895 5895 5895 5895 5895 5894 5894 5893 5893 5893 5893 5893 5894 5894 5895 5896 5897 5897 5897 5898 5898 5898 5898 5898 5899
5823 5828 5832 5836 5839 5841 5843 5844 5847 5852 5856 5857 5860 5860 5861 5863 5863 5861 5862 5866 5869 5872 5876 5880 5883 5885 5887 5889 5890 5891 5892 5893 5893 5893 5893 5894 5894 5893 5893 5893 5894 5893 5893 5893 5892 5891 5890 5890 5891 5891 5891 5892 5893 5894 5895 5895 5895 5896 5896 5896 5896 5897 5897
5819 5823 5827 5829 5832 5835 5837 5840 5845 5849 5849 5850 5854 5854 5854 5856 5857 5856 5858 5862 5864 5867 5871 5876 5880 5882 5884 5886 5887 5889 5890 5891 5891 5892 5892 5892 5892 5892 5891 5892 5892 5891 5892 5891 5890 5889 5889 5888 5888 5889 5889 5890 5891 5892 5892 5893 5893 5894 5894 5894 5895 5895 5895
5813 5815 5817 5820 5824 5828 5831 5835 5839 5841 5844 5846 5849 5850 5850 5852 5853 5853 5855 5856 5858 5863 5868 5873 5877 5879 5881 5883 5885 5886 5888 5889 5889 5890 5890 5890 5890 5890 5890 5890 5889 5889 5890 5889 5889 5888 5887 5887 5886 5887 5887 5888 5889 5889 5890 5891 5891 5892 5892 5892 5893 5893 5893
5804 5805 5808 5813 5819 5823 5825 5828 5830 5833 5837 5840 5844 5846 5847 5849 5850 5850 5852 5851 5852 5860 5867 5870 5874 5876 5878 5880 5882 5884 5885 5886 5887 5887 5888 5888 5888 5888 5888 5888 5887 5887 5888 5887 5887 5887 5886 5885 5885 5885 5885 5886 5887 5887 5888 5888 5889 5890 5890 5890 5890 5891 5891
5797 5801 5806 5811 5816 5819 5821 5824 5825 5829 5833 5837 5840 5841 5841 5844 5846 5846 5847 5846 5848 5857 5864 5868 5871 5874 5875 5877 5879 5881 5883 5884 5884 5885 5886 5886 5886 5886 5886 5885 5886 5886 5885 5885 5885 5885 5885 5884 5884 5884 5884 5884 5885 5885 5886 5886 5887 5888 5888 5888 5888 5889 5888
5795 5800 5803 5806 5809 5812 5816 5819 5822 5826 5830 5833 5835 5835 5836 5841 5841 5841 5843 5843 5845 5852 5859 5864 5867 5870 5872 5874 5876 5878 5879 5880 5881 5882 5883 5883 5884 5884 5883 5884 5884 5884 5884 5883 5883 5883 5884 5883 5883 5883 5882 5883 5883 5883 5884 5885 5885 5885 5886 5886 5886 5886 5886
5791 5795 5797 5798 5801 5804 5807 5810 5815 5819 5822 5827 5831 5832 5836 5838 5836 5838 5840 5839 5841 5848 5854 5860 5864 5866 5869 5871 5872 5875 5876 5877 5878 5879 5880 5881 5881 5881 5881 5881 5882 5882 5882 5881 5881 5882 5882 5882 5882 5881 5881 5881 5882 5882 5882 5882 5883 5883 5883 5884 5884 5884 5884
5783 5786 5787 5789 5793 5796 5798 5803 5808 5812 5816 5822 5826 5829 5832 5831 5829 5834 5837 5835 5838 5845 5851 5857 5861 5862 5865 5867 5869 5871 5873 5875 5876 5876 5877 5878 5878 5878 5879 5879 5880 5880 5880 5879 5879 5880 5880 5880 5880 5880 5880 5880 5880 5880 5880 5880 5880 5880 5881 5882 5882 5882 5881
5776 5778 5781 5784 5789 5791 5793 5798 5802 5806 5811 5815 5818 5822 5823 5821 5822 5828 5830 5831 5836 5843 5848 5853 5857 5858 5861 5864 5866 5868 5870 5872 5873 5873 5874 5875 5875 5876 5876 5877 5877 5877 5877 5877 5878 5878 5878 5878 5878 5878 5878 5878 5878 5878 5878 5878 5878 5879 5879 5879 5879 5879 5877
5772 5777 5781 5785 5788 5788 5790 5794 5798 5801 5804 5808 5812 5814 5813 5815 5819 5822 5824 5829 5835 5840 5845 5849 5853 5856 5858 5861 5863 5865 5867 5868 5869 5870 5871 5871 5872 5873 5873 5874 5874 5875 5875 5875 5875 5876 5876 5875 5875 5875 5876 5876 5876 5876 5876 5876 5876 5877 5877 5876 5876 5875 5873
5770 5775 5780 5783 5784 5784 5787 5791 5795 5798 5801 5804 5806 5807 5808 5813 5816 5816 5821 5828 5832 5835 5841 5846 5849 5852 5855 5858 5860 5862 5864 5865 5866 5867 5867 5868 5869 5869 5870 5871 5871 5872 5873 5873 5873 5873 5873 5873 5873 5873 5873 5873 5873 5873 5874 5874 5874 5874 5874 5873 5873 5871 5870
5767 5772 5776 5778 5778 5779 5782 5787 5791 5794 5797 5799 5801 5803 5808 5811 5811 5813 5820 5826 5827 5832 5838 5842 5846 5849 5852 5854 5857 5859 5861 5862 5863 5864 5864 5864 5865 5866 5867 5868 5869 5870 5870 5870 5870 5871 5870 5871 5871 5871 5871 5871 5871 5871 5872 5872 5872 5872 5872 5871 5870 5869 5867
5763 5767 5771 5772 5772 5773 5776 5780 5785 5788 5791 5793 5796 5800 5805 5807 5808 5813 5819 5821 5823 5829 5835 5838 5842 5845 5848 5851 5853 5855 5857 5858 5859 5860 5860 5861 5862 5863 5864 5865 5866 5867 5867 5867 5867 5868 5868 5868 5868 5869 5869 5869 5869 5869 5870 5870 5870 5869 5869 5868 5867 5866 5864
5759 5763 5766 5767 5767 5769 5771 5774 5779 5782 5785 5787 5790 5795 5799 5802 5805 5810 5814 5815 5818 5825 5831 5835 5838 5841 5844 5846 5849 5851 5853 5854 5856 5857 5857 5858 5859 5860 5861 5863 5864 5864 5865 5864 5864 5865 5865 5865 5865 5866 5866 5866 5867 5867 5867 5867 5867 5867 5866 5865 5864 5862 5861
5754 5759 5761 5762 5764 5765 5764 5767 5771 5776 5779 5782 5785 5789 5793 5797 5801 5805 5808 5809 5813 5822 5828 5830 5833 5836 5839 5842 5844 5847 5849 5851 5852 5853 5854 5856 5857 5857 5858 5860 5861 5862 5862 5862 5862 5862 5862 5862 5862 5863 5863 5863 5864 5864 5864 5863 5863 5863 5862 5861 5860 5859 5857
5750 5756 5756 5757 5760 5758 5755 5759 5766 5771 5775 5778 5781 5784 5788 5792 5796 5799 5801 5805 5811 5819 5823 5825 5828 5832 5835 5838 5841 5843 5845 5847 5848 5850 5852 5853 5854 5854 5856 5857 5858 5859 5859 5859 5859 5858 5858 5858 5858 5859 5860 5860 5860 5860 5859 5859 5859 5859 5858 5857 5856 5854 5853
5747 5751 5751 5752 5751 5748 5751 5759 5765 5767 5771 5775 5778 5780 5784 5788 5791 5793 5797 5802 5808 5813 5817 5820 5824 5827 5830 5833 5836 5839 5841 5843 5845 5847 5848 5850 5850 5851 5853 5854 5855 5855 5856 5856 5855 5855 5854 5854 5854 5855 5856 5856 5855 5855 5855 5855 5854 5854 5854 5853 5851 5850 5849
5742 5745 5747 5746 5744 5746 5753 5760 5762 5763 5767 5771 5774 5776 5779 5783 5786 5789 5794 5799 5803 5808 5812 5816 5819 5822 5825 5828 5831 5834 5836 5839 5841 5843 5845 5846 5847 5848 5849 5850 5851 5851 5852 5852 5851 5851 5850 5850 5850 5851 5852 5851 5851 5851 5851 5851 5850 5849 5849 5848 5847 5846 5844
5737 5741 5743 5742 5742 5747 5753 5755 5756 5758 5762 5765 5768 5770 5773 5778 5782 5786 5790 5795 5799 5804 5808 5812 5815 5818 5821 5823 5826 5828 5830 5833 5836 5839 5841 5842 5843 5843 5845 5846 5847 5847 5847 5848 5846 5845 5845 5845 5846 5847 5847 5847 5847 5847 5847 5846 5845 5845 5844 5843 5842 5841 5839
5733 5737 5738 5738 5741 5745 5748 5750 5752 5755 5757 5760 5763 5766 5769 5773 5778 5782 5787 5792 5796 5800 5805 5808 5811 5814 5816 5818 5820 5823 5825 5828 5831 5833 5836 5837 5838 5839 5841 5842 5842 5842 5841 5841 5841 5841 5841 5841 5842 5843 5843 5843 5843 5842 5842 5842 5841 5840 5839 5839 5837 5836 5835
5729 5732 5733 5735 5738 5741 5744 5747 5750 5752 5755 5757 5760 5762 5764 5768 5774 5779 5784 5789 5793 5797 5801 5804 5806 5809 5811 5813 5816 5819 5821 5824 5826 5828 5830 5832 5833 5835 5837 5837 5836 5836 5836 5837 5837 5837 5837 5837 5837 5838 5838 5838 5838 5838 5838 5837 5837 5835 5835 5834 5833 5832 5831
5725 5727 5729 5732 5735 5738 5742 5746 5748 5751 5753 5755 5758 5758 5759 5764 5770 5776 5781 5786 5790 5793 5797 5799 5802 5804 5806 5809 5812 5815 5817 5819 5821 5823 5825 5827 5828 5830 5831 5832 5832 5832 5832 5833 5833 5833 5833 5833 5833 5833 5833 5833 5833 5833 5833 5833 5832 5831 5830 5829 5828 5827 5826
5722 5723 5725 5728 5732 5735 5739 5743 5746 5749 5751 5753 5753 5753 5755 5762 5768 5773 5778 5782 5785 5789 5792 5795 5798 5800 5802 5805 5808 5810 5812 5814 5816 5818 5820 5822 5824 5825 5826 5827 5827 5828 5828 5829 5829 5829 5829 5829 5829 5829 5829 5829 5829 5829 5828 5828 5827 5826 5825 5824 5824 5823 5822
5719 5720 5722 5725 5728 5732 5736 5739 5743 5746 5747 5748 5748 5749 5754 5761 5766 5770 5775 5778 5781 5785 5789 5791 5794 5796 5799 5802 5804 5806 5808 5810 5812 5813 5815 5817 5818 5820 5821 5822 5823 5824 5824 5824 5824 5824 5825 5825 5825 5825 5825 5824 5824 5823 5823 5822 5822 5821 5820 5819 5818 5817 5816
5715 5717 5719 5721 5725 5729 5732 5736 5739 5742 5743 5744 5746 5749 5754 5759 5763 5767 5771 5775 5778 5782 5785 5788 5790 5793 5795 5798 5800 5802 5804 5805 5807 5809 5810 5812 5813 5815 5816 5817 5818 5819 5819 5820 5820 5820 5821 5821 5820 5820 5820 5819 5818 5818 5817 5817 5816 5816 5815 5813 5812 5810 5809
5711 5713 5715 5718 5721 5725 5729 5732 5735 5737 5739 5741 5744 5748 5752 5756 5760 5764 5768 5772 5775 5778 5781 5784 5786 5789 5791 5793 5796 5798 5799 5801 5803 5804 5806 5807 5809 5810 5811 5812 5813 5813 5813 5814 5814 5814 5815 5815 5815 5815 5815 5814 5814 5813 5812 5812 5811 5811 5809 5807 5805 5803 5802
5706 5709 5711 5714 5718 5722 5725 5728 5731 5734 5736 5739 5742 5745 5749 5753 5757 5761 5764 5768 5771 5774 5777 5779 5782 5784 5787 5789 5791 5793 5795 5796 5798 5800 5801 5803 5804 5805 5806 5807 5808 5808 5808 5808 5808 5807 5808 5808 5809 5809 5809 5808 5808 5807 5807 5806 5806 5804 5802 5800 5798 5797 5796
5702 5706 5709 5711 5714 5718 5721 5724 5727 5730 5733 5736 5738 5742 5745 5749 5753 5756 5760 5763 5766 5769 5772 5774 5777 5780 5782 5784 5786 5788 5789 5791 5792 5794 5796 5797 5798 5800 5801 5802 5803 5803 5803 5803 5803 5802 5802 5803 5803 5803 5803 5803 5802 5802 5801 5800 5799 5797 5795 5793 5791 5790 5789
5699 5703 5705 5707 5710 5714 5717 5721 5723 5726 5728 5731 5735 5738 5741 5745 5748 5751 5755 5758 5761 5763 5767 5770 5773 5775 5777 5779 5781 5782 5783 5785 5787 5788 5790 5791 5792 5794 5796 5797 5798 5798 5798 5798 5798 5798 5798 5798 5798 5798 5797 5797 5797 5796 5795 5794 5793 5791 5789 5787 5785 5783 5782
5698 5701 5702 5704 5707 5710 5713 5717 5720 5722 5724 5727 5731 5734 5738 5741 5744 5747 5751 5754 5756 5759 5762 5765 5768 5770 5772 5774 5775 5776 5778 5779 5781 5783 5785 5786 5788 5789 5790 5792 5792 5793 5793 5793 5793 5793 5793 5793 5793 5793 5792 5792 5791 5790 5789 5788 5786 5785 5783 5781 5779 5776 5775
5696 5698 5699 5702 5704 5706 5709 5712 5715 5717 5719 5722 5726 5730 5734 5737 5740 5743 5746 5749 5751 5754 5757 5760 5762 5764 5766 5768 5769 5770 5772 5773 5775 5777 5779 5781 5783 5784 5785 5786 5787 5787 5787 5788 5788 5788 5787 5787 5787 5787 5786 5785 5785 5784 5783 5781 5780 5779 5778 5775 5773 5771 5769
5692 5694 5696 5699 5701 5703 5705 5708 5710 5713 5716 5719 5722 5725 5728 5732 5736 5738 5741 5744 5746 5749 5751 5754 5757 5759 5760 5762 5764 5765 5767 5768 5770 5772 5774 5776 5778 5779 5780 5780 5781 5781 5782 5782 5782 5782 5781 5780 5780 5780 5780 5779 5778 5777 5776 5775 5774 5774 5772 5769 5768 5767 5766
5688 5692 5695 5697 5699 5700 5702 5704 5706 5710 5713 5716 5718 5721 5724 5727 5731 5734 5736 5739 5741 5743 5745 5748 5750 5752 5754 5756 5758 5760 5762 5764 5765 5767 5769 5770 5772 5774 5774 5775 5775 5775 5775 5775 5775 5775 5774 5773 5773 5773 5773 5772 5771 5770 5769 5769 5768 5767 5766 5765 5764 5763 5762
5685 5688 5691 5693 5695 5697 5698 5701 5704 5707 5709 5711 5714 5718 5720 5722 5726 5729 5732 5735 5736 5737 5739 5741 5744 5746 5749 5751 5753 5755 5757 5759 5760 5762 5764 5765 5767 5768 5769 5769 5768 5768 5768 5768 5768 5768 5767 5767 5767 5767 5766 5766 5765 5764 5764 5763 5762 5761 5761 5760 5759 5758 5757
5680 5683 5685 5689 5691 5693 5695 5698 5700 5703 5705 5708 5710 5713 5716 5718 5721 5724 5727 5729 5731 5732 5733 5735 5738 5740 5743 5746 5748 5750 5752 5754 5756 5758 5759 5761 5762 5762 5762 5762 5762 5762 5762 5762 5762 5762 5762 5762 5761 5761 5760 5759 5758 5758 5758 5757 5756 5756 5755 5755 5754 5753 5752
5677 5679 5682 5685 5688 5690 5692 5695 5697 5699 5702 5705 5707 5709 5712 5714 5716 5719 5721 5723 5726 5729 5730 5731 5733 5735 5738 5741 5743 5745 5747 5750 5752 5753 5754 5755 5755 5756 5756 5756 5756 5756 5756 5756 5756 5756 5756 5756 5756 5755 5755 5754 5753 5752 5752 5752 5751 5750 5750 5749 5748 5747 5746